GW5092 Weather Reports


time (UTC)temp
C
wind
direction
speed
KPH
gust
KPH
rain 1hr
cm
rain 24hr
cm
rain mn
cm
humidity
%
barometer
mb
20260505164513 8 300 9.7 14.5 0.00 0.00 0.00 64 1008.5
20260505163014 8 280 11.3 16.1 0.00 0.00 0.00 64 1008.7
20260505161504 7 279 9.7 14.5 0.00 0.00 0.00 62 1008.6
20260505153009 8 315 6.4 14.5 0.00 0.00 0.00 61 1008.3
20260505151509 8 317 8.0 12.9 0.00 0.00 0.00 61 1008.6
20260505124514 8 360 19.3 29.0 0.00 0.00 0.00 63 1007.3
20260505123015 8 5 20.9 32.2 0.00 0.00 0.00 64 1007.1
20260505121511 7 360 20.9 35.4 0.00 0.00 0.00 65 1006.3
20260505120017 7 360 22.5 35.4 0.00 0.00 0.00 68 1005.9
20260505114514 7 18 24.1 37.0 0.00 0.00 0.00 71 1006.0
20260505113012 7 355 17.7 33.8 0.00 0.00 0.00 75 1006.1
20260505111524 7 17 19.3 30.6 0.00 0.00 0.00 79 1005.9
20260505101517 7 346 14.5 25.7 0.00 0.00 0.00 82 1004.9
20260505100026 8 288 9.7 19.3 0.00 0.00 0.00 75 1004.4
20260505094518 8 38 8.0 17.7 0.00 0.00 0.00 72 1004.3
20260505093012 8 26 8.0 19.3 0.00 0.00 0.00 75 1003.4
20260505091518 7 28 9.7 17.7 0.00 0.00 0.00 78 1003.1
20260505090020 7 18 11.3 17.7 0.00 0.00 0.00 84 1002.8
20260505084519 6 34 17.7 29.0 0.00 0.00 0.00 86 1002.4
20260505083019 6 339 16.1 24.1 0.00 0.00 0.00 84 1002.3
20260505081531 7 335 14.5 19.3 0.00 0.00 0.00 81 1002.4
20260505080020 7 304 11.3 24.1 0.00 0.00 0.00 78 1001.8
20260505074523 8 346 8.0 14.5 0.00 0.00 0.00 76 1001.7
20260505073027 8 15 9.7 16.1 0.00 0.00 0.00 74 1001.5
20260505071539 9 348 11.3 19.3 0.00 0.00 0.00 72 1001.6
20260505070024 10 360 11.3 20.9 0.00 0.00 0.00 71 1001.3
20260505064523 10 347 11.3 19.3 0.00 0.00 0.00 70 1001.6
20260505063011 10 329 9.7 20.9 0.00 0.00 0.00 69 1001.2
20260505061511 10 348 11.3 19.3 0.00 0.00 0.00 69 1000.9
20260505060022 10 5 4.8 9.7 0.00 0.00 0.00 71 1000.9
20260505054507 10 332 8.0 19.3 0.00 0.00 0.00 70 1000.7
20260505053023 11 324 3.2 11.3 0.00 0.00 0.00 69 1000.5
20260505051533 11 261 3.2 11.3 0.00 0.00 0.00 78 1000.6
20260505041515 10 65 3.2 8.0 0.00 0.00 0.00 85 998.7
20260505040033 10 39 3.2 6.4 0.00 0.00 0.00 84 999.5
20260505034507 10 39 3.2 14.5 0.00 0.00 0.00 85 999.6
20260505033020 10 244 3.2 12.9 0.00 0.00 0.00 82 999.7
20260505031522 10 139 12.9 24.1 0.00 0.00 0.00 83 999.5
20260505030021 10 194 9.7 14.5 0.00 0.00 0.00 84 999.3
20260505024521 10 232 9.7 20.9 0.00 0.00 0.00 82 999.4
20260505023024 10 219 14.5 35.4 0.00 0.00 0.00 82 999.0
20260505021512 11 300 22.5 29.0 0.00 0.00 0.00 81 999.4
20260505020021 11 153 24.1 38.6 0.00 0.00 0.00 82 997.7
20260505014508 11 191 25.7 37.0 0.00 0.00 0.00 83 997.6
20260505013018 12 187 24.1 43.5 0.00 0.00 0.00 80 997.0
20260505011522 12 201 29.0 45.1 0.00 0.00 0.00 80 996.9
20260505010009 12 173 29.0 45.1 0.00 0.00 0.00 79 996.4
20260505004519 12 210 24.1 38.6 0.00 0.00 0.00 76 996.6
20260505003027 13 173 27.4 45.1 0.00 0.00 0.00 71 996.4
20260505001513 13 188 19.3 38.6 0.00 0.00 0.00 70 996.3
20260505000023 15 194 17.7 40.2 0.00 0.00 0.00 67 996.1
20260504234525 15 181 22.5 41.8 0.00 0.00 0.00 65 996.2
20260504233016 16 165 25.7 41.8 0.00 0.00 0.00 63 996.3
20260504231526 16 189 27.4 40.2 0.00 0.00 0.00 66 996.6
20260504230012 16 175 24.1 41.8 0.00 0.00 0.00 65 997.1
20260504224518 16 180 24.1 40.2 0.00 0.00 0.00 68 997.4
20260504223004 15 175 24.1 45.1 0.00 0.00 0.00 69 997.7
20260504221522 15 182 22.5 41.8 0.00 0.00 0.00 70 997.9
20260504220028 15 178 25.7 41.8 0.00 0.00 0.00 71 998.0
20260504214508 15 200 24.1 41.8 0.00 0.00 0.00 70 998.2
20260504213022 14 146 24.1 45.1 0.00 0.00 0.00 73 998.4
20260504211523 14 172 24.1 45.1 0.00 0.00 0.00 73 998.5
20260504210014 14 150 25.7 40.2 0.00 0.00 0.00 72 998.6
20260504204523 14 169 27.4 43.5 0.00 0.00 0.00 72 998.9
20260504203011 14 190 22.5 40.2 0.00 0.00 0.00 72 999.0
20260504201517 14 178 25.7 35.4 0.00 0.00 0.00 71 999.2
20260504200036 13 157 22.5 38.6 0.00 0.00 0.00 73 999.4
20260504194508 13 179 22.5 37.0 0.00 0.00 0.00 73 999.6
20260504193022 13 202 20.9 37.0 0.00 0.00 0.00 71 999.6
20260504191537 13 169 24.1 45.1 0.00 0.00 0.00 71 999.8
20260504190016 13 172 22.5 38.6 0.00 0.00 0.00 72 1000.0
20260504184522 12 209 22.5 33.8 0.00 0.00 0.00 74 1000.2
20260504183012 12 169 20.9 32.2 0.00 0.00 0.00 75 1000.3
20260504181523 13 171 24.1 33.8 0.00 0.00 0.00 72 1000.3
20260504180026 12 178 24.1 37.0 0.00 0.00 0.00 73 1000.4
20260504174515 12 178 22.5 37.0 0.00 0.00 0.00 75 1000.4
20260504173026 12 155 27.4 38.6 0.00 0.00 0.00 74 1000.7
20260504171528 12 170 24.1 33.8 0.00 0.00 0.00 75 1000.8